Date,TemperatureHighF,TemperatureAvgF,TemperatureLowF,DewpointHighF,DewpointAvgF,DewpointLowF,HumidityHigh,HumidityAvg,HumidityLow,PressureMaxIn,PressureMinIn,WindSpeedMaxMPH,WindSpeedAvgMPH,GustSpeedMaxMPH,PrecipitationSumIn
2014-2-1,0,0,0,0,0,0,0,0,100,30.00,29.85,0,0,0,0.09
2014-2-2,0,0,0,0,0,0,0,0,100,29.91,29.68,0,0,0,0.09
2014-2-3,0,0,0,0,0,0,0,0,100,29.97,29.53,0,0,0,9.87
2014-2-4,0,0,0,0,0,0,0,0,100,30.27,29.97,0,0,0,0.00
2014-2-5,0,0,0,0,0,0,0,0,100,30.33,29.50,0,0,0,4.89
2014-2-6,0,0,0,0,0,0,0,0,100,30.18,29.56,0,0,0,0.00
2014-2-7,0,0,0,0,0,0,0,0,100,29.76,29.56,0,0,0,0.00
2014-2-8,0,0,0,0,0,0,0,0,100,29.94,29.65,0,0,0,0.00
2014-2-9,0,0,0,0,0,0,0,0,100,29.97,29.50,0,0,0,4.89
2014-2-10,0,0,0,0,0,0,0,0,100,30.06,29.79,0,0,0,0.00
2014-2-11,0,0,0,0,0,0,0,0,100,29.94,29.68,4,0,4,0.33
2014-2-12,0,0,0,0,0,0,0,0,100,29.71,29.38,11,2,11,10.37
2014-2-13,0,0,0,0,0,0,0,0,100,29.85,29.50,10,2,10,5.39
2014-2-14,0,0,0,0,0,0,0,0,100,29.82,29.53,14,3,14,0.04
2014-2-15,0,0,0,0,0,0,0,0,100,29.82,29.26,115,6,115,0.29
2014-2-16,0,0,0,0,0,0,0,0,100,29.82,29.32,115,50,115,0.00
2014-2-17,48,36,0,38,28,0,92,54,53,29.74,29.47,5,5,5,0.00
2014-2-18,48,28,0,41,22,0,98,52,54,29.82,29.35,5,1,5,11.03
2014-2-19,47,35,0,29,21,0,78,58,39,29.94,29.50,0,0,0,6.05
2014-2-20,49,37,27,33,26,0,98,67,40,29.94,29.53,0,0,0,11.07
2014-2-21,44,33,25,27,18,8,87,56,34,29.94,29.76,0,0,0,0.00
2014-2-22,38,30,0,18,12,0,65,48,30,29.94,29.53,0,0,0,11.07
2014-2-23,32,27,25,26,22,14,96,80,59,29.88,29.76,0,0,0,0.00
2014-2-24,32,26,22,23,19,14,94,75,52,30.03,29.85,0,0,0,0.00
2014-2-25,45,27,14,21,13,5,89,57,36,30.18,30.00,10,2,10,0.00
2014-2-26,49,30,14,24,14,4,74,53,37,30.06,29.68,3,3,3,0.04
2014-2-27,45,34,29,30,24,16,93,67,48,29.68,29.50,3,1,3,6.13
2014-2-28,43,33,20,36,24,3,96,73,47,29.59,29.47,0,0,0,11.15